Date String (YYYY-MM-DD hh:mm:ss) UTC,Instrument flags,Ambient pressure (hPa),Sample flow (lpm),Bypass flow (lpm),Sample temperature (°C),Ambient temperature (°C),ASC tube jacket temperature (°C),LED temperature (°C),Box temperature (°C),Sample RH (%),Span deviation,Mass concentration (μg/m³),Mass concentration (μg/m³),Mass concentration (μg/m³)
DateTimeUTC,F1_M11,P_M11,Q1_M11,Q2_M11,T1_M11,T2_M11,T3_M11,T4_M11,T5_M11,U1_M11,ZSPAN_M11,X0_M11,X2_M11,X1_M11
2021-12-02 14:00:00,,0828.7,4.99,0.00,29.0,28.0,00.0,38.0,30.7,07.5,0000.0,0006.32,0000.81,0000.28
2021-12-02 14:01:00,,0828.6,5.01,0.00,29.0,28.0,00.0,38.0,30.7,07.5,0000.0,0006.23,0000.81,0000.28
2021-12-02 14:02:00,,0828.7,4.98,0.00,29.0,28.0,00.0,38.0,30.7,07.4,0000.0,0006.26,0000.81,0000.28
2021-12-02 14:03:00,,0829.0,5.02,0.00,29.0,28.0,00.0,38.0,30.7,07.5,0000.0,0006.57,0000.78,0000.28
2021-12-02 14:04:00,,0829.1,4.98,0.00,29.0,28.0,00.0,38.0,30.7,07.5,0000.0,0004.99,0000.82,0000.27
2021-12-02 14:05:00,,0829.3,5.00,0.00,29.0,28.0,00.0,38.0,30.7,07.4,0000.0,0004.88,0000.83,0000.26
2021-12-02 14:06:00,,0828.8,5.00,0.00,29.0,28.0,00.0,38.0,30.7,07.4,0000.0,0004.67,0000.79,0000.26
2021-12-02 14:07:00,,0828.7,5.00,0.00,29.0,28.0,00.0,38.0,30.7,07.4,0000.0,0004.46,0000.78,0000.25
2021-12-02 14:08:00,,0828.7,5.00,0.00,29.0,28.0,00.0,38.0,30.7,07.6,0000.0,0004.36,0000.76,0000.25
2021-12-02 14:09:00,,0828.7,5.00,0.00,29.0,28.0,00.0,38.0,30.6,07.6,0000.0,0004.12,0000.75,0000.25
2021-12-02 14:10:00,,0828.9,5.01,0.00,29.0,28.0,00.0,38.0,30.6,07.4,0000.0,0003.26,0000.71,0000.24
2021-12-02 14:11:00,,0828.8,4.99,0.00,28.9,28.0,00.0,38.0,30.6,07.4,0000.0,0003.32,0000.72,0000.23
2021-12-02 14:12:00,,0828.7,5.01,0.00,28.9,27.9,00.0,38.0,30.6,07.4,0000.0,0003.35,0000.71,0000.23
2021-12-02 14:13:00,,0828.7,4.99,0.00,28.9,27.9,00.0,37.9,30.6,07.5,0000.0,0003.33,0000.71,0000.22
2021-12-02 14:14:00,,0828.7,5.02,0.00,28.9,27.9,00.0,37.9,30.5,07.4,0000.0,0002.23,0000.66,0000.21
2021-12-02 14:15:00,,0828.8,4.99,0.00,28.9,27.9,00.0,37.9,30.5,07.4,0000.0,0001.62,0000.60,0000.21
2021-12-02 14:16:00,,0828.8,5.00,0.00,28.9,27.9,00.0,37.9,30.5,07.5,0000.0,0001.59,0000.58,0000.21
2021-12-02 14:17:00,,0829.1,5.00,0.00,28.9,27.9,00.0,37.9,30.4,07.5,0000.0,0001.47,0000.54,0000.21
2021-12-02 14:18:00,,0829.2,5.00,0.00,28.9,27.9,00.0,37.9,30.5,07.5,0000.0,0001.36,0000.51,0000.21
2021-12-02 14:19:00,,0829.2,4.99,0.00,28.8,27.9,00.0,37.9,30.5,07.5,0000.0,0001.27,0000.51,0000.22
2021-12-02 14:20:00,,0829.2,5.02,0.00,28.8,27.9,00.0,37.9,30.5,07.5,0000.0,0001.12,0000.47,0000.22
2021-12-02 14:21:00,,0829.4,5.00,0.00,28.8,27.9,00.0,37.9,30.5,07.5,0000.0,0001.07,0000.47,0000.22
2021-12-02 14:22:00,,0829.3,4.99,0.00,28.8,27.9,00.0,37.9,30.5,07.5,0000.0,0001.00,0000.47,0000.22
2021-12-02 14:23:00,,0829.2,5.00,0.00,28.8,27.9,00.0,37.9,30.5,07.5,0000.0,0000.95,0000.47,0000.22
2021-12-02 14:24:00,,0829.1,5.02,0.00,28.8,27.9,00.0,37.9,30.5,07.5,0000.0,0000.93,0000.48,0000.22
2021-12-02 14:25:00,,0828.9,4.98,0.00,28.8,27.9,00.0,37.9,30.5,07.5,0000.0,0000.94,0000.49,0000.22
2021-12-02 14:26:00,,0828.8,5.01,0.00,28.8,27.9,00.0,37.9,30.4,07.4,0000.0,0000.98,0000.49,0000.22
2021-12-02 14:27:00,,0828.9,5.00,0.00,28.8,27.9,00.0,37.9,30.4,07.4,0000.0,0001.03,0000.50,0000.23
2021-12-02 14:28:00,,0828.8,5.00,0.00,28.8,27.9,00.0,37.9,30.5,07.4,0000.0,0001.06,0000.51,0000.23
2021-12-02 14:29:00,,0828.8,5.02,0.00,28.8,27.9,00.0,37.8,30.5,07.4,0000.0,0001.02,0000.50,0000.23
2021-12-02 14:30:00,,0828.8,4.99,0.00,28.8,27.8,00.0,37.8,30.4,07.4,0000.0,0000.99,0000.47,0000.22
2021-12-02 14:31:00,,0828.8,5.01,0.00,28.8,27.8,00.0,37.8,30.4,07.4,0000.0,0000.97,0000.46,0000.22
2021-12-02 14:32:00,,0828.9,5.01,0.00,28.8,27.8,00.0,37.8,30.5,07.4,0000.0,0000.93,0000.45,0000.21
2021-12-02 14:33:00,,0828.8,4.98,0.00,28.8,27.8,00.0,37.8,30.5,07.5,0000.0,0000.91,0000.43,0000.21
2021-12-02 14:34:00,,0828.9,5.01,0.00,28.8,27.8,00.0,37.8,30.5,07.5,0000.0,0000.90,0000.43,0000.21
2021-12-02 14:35:00,,0828.9,4.98,0.00,28.8,27.8,00.0,37.8,30.5,07.5,0000.0,0000.88,0000.43,0000.22
2021-12-02 14:36:00,,0828.8,5.01,0.00,28.8,27.8,00.0,37.8,30.5,07.5,0000.0,0000.89,0000.42,0000.22
2021-12-02 14:37:00,,0828.9,5.01,0.00,28.8,27.8,00.0,37.8,30.4,07.4,0000.0,0000.87,0000.42,0000.22
2021-12-02 14:38:00,,0828.9,4.99,0.00,28.8,27.8,00.0,37.8,30.4,07.3,0000.0,0000.80,0000.40,0000.22
2021-12-02 14:39:00,,0828.9,5.02,0.00,28.8,27.8,00.0,37.8,30.4,07.2,0000.0,0001.07,0000.46,0000.22
2021-12-02 14:40:00,,0828.9,4.98,0.00,28.8,27.8,00.0,37.8,30.4,07.2,0000.0,0001.16,0000.49,0000.22
2021-12-02 14:41:00,,0828.9,5.00,0.00,28.8,27.7,00.0,37.8,30.4,07.3,0000.0,0001.21,0000.51,0000.23
2021-12-02 14:42:00,,0828.9,5.01,0.00,28.8,27.8,00.0,37.8,30.4,07.4,0000.0,0001.32,0000.52,0000.23
2021-12-02 14:43:00,,0828.9,4.99,0.00,28.8,27.8,00.0,37.8,30.4,07.4,0000.0,0001.61,0000.55,0000.23
2021-12-02 14:44:00,,0828.9,5.00,0.00,28.8,27.8,00.0,37.8,30.5,07.3,0000.0,0001.73,0000.59,0000.24
2021-12-02 14:45:00,,0828.9,5.00,0.00,28.8,27.7,00.0,37.8,30.5,07.3,0000.0,0001.76,0000.61,0000.24
2021-12-02 14:46:00,,0828.9,5.00,0.00,28.8,27.7,00.0,37.8,30.5,07.2,0000.0,0001.70,0000.59,0000.24
2021-12-02 14:47:00,,0828.9,4.99,0.00,28.8,27.8,00.0,37.8,30.5,07.1,0000.0,0001.78,0000.59,0000.24
2021-12-02 14:48:00,,0828.9,5.02,0.00,28.8,27.8,00.0,37.8,30.5,07.2,0000.0,0001.88,0000.60,0000.25
2021-12-02 14:49:00,,0828.9,5.00,0.00,28.8,27.8,00.0,37.8,30.5,07.3,0000.0,0001.96,0000.65,0000.26
2021-12-02 14:50:00,,0828.9,4.99,0.00,28.8,27.8,00.0,37.8,30.6,07.3,0000.0,0001.78,0000.61,0000.26
2021-12-02 14:51:00,,0828.9,5.01,0.00,28.8,27.8,00.0,37.8,30.5,07.3,0000.0,0001.63,0000.57,0000.26
2021-12-02 14:52:00,,0829.0,4.99,0.00,28.8,27.8,00.0,37.8,30.5,07.3,0000.0,0001.60,0000.58,0000.28
2021-12-02 14:53:00,,0828.9,5.00,0.00,28.8,27.8,00.0,37.8,30.5,07.3,0000.0,0001.57,0000.58,0000.28
2021-12-02 14:54:00,,0829.0,5.01,0.00,28.9,27.7,00.0,37.8,30.5,07.5,0000.0,0001.34,0000.57,0000.28
2021-12-02 14:55:00,,0828.9,5.00,0.00,28.9,27.7,00.0,37.8,30.5,07.6,0000.0,0001.15,0000.53,0000.28
2021-12-02 14:56:00,,0828.9,4.99,0.00,28.9,27.7,00.0,37.8,30.5,07.6,0000.0,0001.12,0000.52,0000.28
2021-12-02 14:57:00,,0828.9,5.01,0.00,28.9,27.8,00.0,37.8,30.5,07.6,0000.0,0001.20,0000.56,0000.28
2021-12-02 14:58:00,,0828.9,5.00,0.00,28.9,27.8,00.0,37.9,30.6,07.6,0000.0,0001.04,0000.54,0000.28
2021-12-02 14:59:00,,0828.9,4.99,0.00,28.9,27.8,00.0,37.9,30.6,07.5,0000.0,0000.96,0000.53,0000.27
